﻿測定場所 (Monitoring sites),日付 (Measurement date),時間 (Measurement time),線量率 最大値 (max) μGy/h,線量率 最小値 (min) μGy/h,線量率 平均値 (average) μGy/h,
新宿 (Shinjuku),2011-12-04,23:00～23:59,0.0549,0.0505,0.0526,
新宿 (Shinjuku),2011-12-04,22:00～22:59,0.0551,0.0501,0.0527,
新宿 (Shinjuku),2011-12-04,21:00～21:59,0.0555,0.0496,0.0524,
新宿 (Shinjuku),2011-12-04,20:00～20:59,0.0551,0.0494,0.0523,
新宿 (Shinjuku),2011-12-04,19:00～19:59,0.0555,0.0503,0.0525,
新宿 (Shinjuku),2011-12-04,18:00～18:59,0.0558,0.0498,0.0523,
新宿 (Shinjuku),2011-12-04,17:00～17:59,0.0551,0.0503,0.0525,
新宿 (Shinjuku),2011-12-04,16:00～16:59,0.0552,0.0502,0.0525,
新宿 (Shinjuku),2011-12-04,15:00～15:59,0.0548,0.0497,0.0525,
新宿 (Shinjuku),2011-12-04,14:00～14:59,0.0546,0.0501,0.0526,
新宿 (Shinjuku),2011-12-04,13:00～13:59,0.0546,0.0503,0.0524,
新宿 (Shinjuku),2011-12-04,12:00～12:59,0.0559,0.0496,0.0527,
新宿 (Shinjuku),2011-12-04,11:00～11:59,0.0549,0.0488,0.0526,
新宿 (Shinjuku),2011-12-04,10:00～10:59,0.0548,0.0497,0.0523,
新宿 (Shinjuku),2011-12-04,09:00～09:59,0.0546,0.0501,0.0524,
新宿 (Shinjuku),2011-12-04,08:00～08:59,0.0540,0.0496,0.0519,
新宿 (Shinjuku),2011-12-04,07:00～07:59,0.0544,0.0498,0.0521,
新宿 (Shinjuku),2011-12-04,06:00～06:59,0.0544,0.0492,0.0518,
新宿 (Shinjuku),2011-12-04,05:00～05:59,0.0544,0.0492,0.0520,
新宿 (Shinjuku),2011-12-04,04:00～04:59,0.0558,0.0498,0.0524,
新宿 (Shinjuku),2011-12-04,03:00～03:59,0.0555,0.0503,0.0523,
新宿 (Shinjuku),2011-12-04,02:00～02:59,0.0550,0.0499,0.0527,
新宿 (Shinjuku),2011-12-04,01:00～01:59,0.0565,0.0504,0.0531,
新宿 (Shinjuku),2011-12-04,00:00～00:59,0.0558,0.0506,0.0532,
新宿 (Shinjuku),2011-12-03,23:00～23:59,0.0551,0.0511,0.0532,
新宿 (Shinjuku),2011-12-03,22:00～22:59,0.0548,0.0499,0.0524,
新宿 (Shinjuku),2011-12-03,21:00～21:59,0.0546,0.0499,0.0523,
新宿 (Shinjuku),2011-12-03,20:00～20:59,0.0548,0.0498,0.0527,
新宿 (Shinjuku),2011-12-03,19:00～19:59,0.0557,0.0498,0.0524,
新宿 (Shinjuku),2011-12-03,18:00～18:59,0.0555,0.0498,0.0523,
新宿 (Shinjuku),2011-12-03,17:00～17:59,0.0544,0.0501,0.0521,
新宿 (Shinjuku),2011-12-03,16:00～16:59,0.0558,0.0486,0.0520,
新宿 (Shinjuku),2011-12-03,15:00～15:59,0.0536,0.0501,0.0519,
新宿 (Shinjuku),2011-12-03,14:00～14:59,0.0556,0.0496,0.0521,
新宿 (Shinjuku),2011-12-03,13:00～13:59,0.0577,0.0505,0.0539,
新宿 (Shinjuku),2011-12-03,12:00～12:59,0.0621,0.0541,0.0581,
新宿 (Shinjuku),2011-12-03,11:00～11:59,0.0656,0.0595,0.0621,
新宿 (Shinjuku),2011-12-03,10:00～10:59,0.0652,0.0600,0.0628,
新宿 (Shinjuku),2011-12-03,09:00～09:59,0.0648,0.0591,0.0630,
新宿 (Shinjuku),2011-12-03,08:00～08:59,0.0660,0.0600,0.0627,
新宿 (Shinjuku),2011-12-03,07:00～07:59,0.0627,0.0576,0.0603,
新宿 (Shinjuku),2011-12-03,06:00～06:59,0.0628,0.0578,0.0605,
新宿 (Shinjuku),2011-12-03,05:00～05:59,0.0639,0.0571,0.0602,
新宿 (Shinjuku),2011-12-03,04:00～04:59,0.0617,0.0557,0.0586,
新宿 (Shinjuku),2011-12-03,03:00～03:59,0.0611,0.0561,0.0583,
新宿 (Shinjuku),2011-12-03,02:00～02:59,0.0596,0.0526,0.0566,
新宿 (Shinjuku),2011-12-03,01:00～01:59,0.0571,0.0517,0.0545,
新宿 (Shinjuku),2011-12-03,00:00～00:59,0.0568,0.0513,0.0547,
新宿 (Shinjuku),2011-12-02,23:00～23:59,0.0555,0.0506,0.0533,
新宿 (Shinjuku),2011-12-02,22:00～22:59,0.0569,0.0500,0.0529,
新宿 (Shinjuku),2011-12-02,21:00～21:59,0.0550,0.0497,0.0525,
新宿 (Shinjuku),2011-12-02,20:00～20:59,0.0551,0.0504,0.0527,
新宿 (Shinjuku),2011-12-02,19:00～19:59,0.0550,0.0503,0.0524,
新宿 (Shinjuku),2011-12-02,18:00～18:59,0.0551,0.0496,0.0527,
新宿 (Shinjuku),2011-12-02,17:00～17:59,0.0550,0.0505,0.0526,
新宿 (Shinjuku),2011-12-02,16:00～16:59,0.0548,0.0506,0.0527,
新宿 (Shinjuku),2011-12-02,15:00～15:59,0.0555,0.0492,0.0521,
新宿 (Shinjuku),2011-12-02,14:00～14:59,0.0554,0.0496,0.0522,
新宿 (Shinjuku),2011-12-02,13:00～13:59,0.0546,0.0499,0.0521,
新宿 (Shinjuku),2011-12-02,12:00～12:59,0.0554,0.0498,0.0527,
新宿 (Shinjuku),2011-12-02,11:00～11:59,0.0548,0.0497,0.0525,
新宿 (Shinjuku),2011-12-02,10:00～10:59,0.0561,0.0490,0.0533,
新宿 (Shinjuku),2011-12-02,09:00～09:59,0.0580,0.0515,0.0548,
新宿 (Shinjuku),2011-12-02,08:00～08:59,0.0583,0.0534,0.0557,
新宿 (Shinjuku),2011-12-02,07:00～07:59,0.0592,0.0537,0.0559,
新宿 (Shinjuku),2011-12-02,06:00～06:59,0.0583,0.0531,0.0559,
新宿 (Shinjuku),2011-12-02,05:00～05:59,0.0587,0.0520,0.0548,
新宿 (Shinjuku),2011-12-02,04:00～04:59,0.0587,0.0530,0.0551,
新宿 (Shinjuku),2011-12-02,03:00～03:59,0.0583,0.0525,0.0559,
新宿 (Shinjuku),2011-12-02,02:00～02:59,0.0577,0.0523,0.0550,
新宿 (Shinjuku),2011-12-02,01:00～01:59,0.0576,0.0525,0.0549,
新宿 (Shinjuku),2011-12-02,00:00～00:59,0.0603,0.0534,0.0568,
新宿 (Shinjuku),2011-12-01,23:00～23:59,0.0586,0.0510,0.0552,
新宿 (Shinjuku),2011-12-01,22:00～22:59,0.0610,0.0537,0.0580,
新宿 (Shinjuku),2011-12-01,21:00～21:59,0.0599,0.0530,0.0570,
新宿 (Shinjuku),2011-12-01,20:00～20:59,0.0579,0.0507,0.0539,
新宿 (Shinjuku),2011-12-01,19:00～19:59,0.0545,0.0501,0.0525,
新宿 (Shinjuku),2011-12-01,18:00～18:59,0.0544,0.0499,0.0523,
新宿 (Shinjuku),2011-12-01,17:00～17:59,0.0550,0.0499,0.0525,
新宿 (Shinjuku),2011-12-01,16:00～16:59,0.0548,0.0507,0.0526,
新宿 (Shinjuku),2011-12-01,15:00～15:59,0.0555,0.0505,0.0525,
新宿 (Shinjuku),2011-12-01,14:00～14:59,0.0558,0.0503,0.0529,
新宿 (Shinjuku),2011-12-01,13:00～13:59,0.0552,0.0505,0.0532,
新宿 (Shinjuku),2011-12-01,12:00～12:59,0.0573,0.0514,0.0538,
新宿 (Shinjuku),2011-12-01,11:00～11:59,0.0607,0.0527,0.0562,
新宿 (Shinjuku),2011-12-01,10:00～10:59,0.0618,0.0550,0.0582,
新宿 (Shinjuku),2011-12-01,09:00～09:59,0.0635,0.0567,0.0599,
新宿 (Shinjuku),2011-12-01,08:00～08:59,0.0616,0.0545,0.0584,
新宿 (Shinjuku),2011-12-01,07:00～07:59,0.0598,0.0537,0.0567,
新宿 (Shinjuku),2011-12-01,06:00～06:59,0.0620,0.0553,0.0580,
新宿 (Shinjuku),2011-12-01,05:00～05:59,0.0630,0.0564,0.0601,
新宿 (Shinjuku),2011-12-01,04:00～04:59,0.0628,0.0569,0.0597,
新宿 (Shinjuku),2011-12-01,03:00～03:59,0.0621,0.0549,0.0583,
新宿 (Shinjuku),2011-12-01,02:00～02:59,0.0614,0.0554,0.0586,
新宿 (Shinjuku),2011-12-01,01:00～01:59,0.0596,0.0541,0.0569,
新宿 (Shinjuku),2011-12-01,00:00～00:59,0.0578,0.0513,0.0551,
新宿 (Shinjuku),2011-11-30,23:00～23:59,0.0585,0.0530,0.0555,
新宿 (Shinjuku),2011-11-30,22:00～22:59,0.0572,0.0506,0.0537,
新宿 (Shinjuku),2011-11-30,21:00～21:59,0.0558,0.0502,0.0531,
新宿 (Shinjuku),2011-11-30,20:00～20:59,0.0548,0.0506,0.0528,
新宿 (Shinjuku),2011-11-30,19:00～19:59,0.0557,0.0506,0.0528,
新宿 (Shinjuku),2011-11-30,18:00～18:59,0.0556,0.0496,0.0531,
新宿 (Shinjuku),2011-11-30,17:00～17:59,0.0551,0.0503,0.0528,
新宿 (Shinjuku),2011-11-30,16:00～16:59,0.0569,0.0512,0.0531,
新宿 (Shinjuku),2011-11-30,15:00～15:59,0.0568,0.0509,0.0535,
新宿 (Shinjuku),2011-11-30,14:00～14:59,0.0557,0.0506,0.0534,
新宿 (Shinjuku),2011-11-30,13:00～13:59,0.0564,0.0507,0.0534,
新宿 (Shinjuku),2011-11-30,12:00～12:59,0.0568,0.0509,0.0536,
新宿 (Shinjuku),2011-11-30,11:00～11:59,0.0565,0.0518,0.0537,
新宿 (Shinjuku),2011-11-30,10:00～10:59,0.0565,0.0516,0.0537,
新宿 (Shinjuku),2011-11-30,09:00～09:59,0.0558,0.0516,0.0538,
新宿 (Shinjuku),2011-11-30,08:00～08:59,0.0576,0.0520,0.0547,
新宿 (Shinjuku),2011-11-30,07:00～07:59,0.0569,0.0524,0.0547,
新宿 (Shinjuku),2011-11-30,06:00～06:59,0.0566,0.0518,0.0547,
新宿 (Shinjuku),2011-11-30,05:00～05:59,0.0569,0.0520,0.0544,
新宿 (Shinjuku),2011-11-30,04:00～04:59,0.0574,0.0518,0.0549,
新宿 (Shinjuku),2011-11-30,03:00～03:59,0.0572,0.0526,0.0550,
新宿 (Shinjuku),2011-11-30,02:00～02:59,0.0576,0.0520,0.0549,
新宿 (Shinjuku),2011-11-30,01:00～01:59,0.0565,0.0523,0.0545,
新宿 (Shinjuku),2011-11-30,00:00～00:59,0.0570,0.0524,0.0548,
新宿 (Shinjuku),2011-11-29,23:00～23:59,0.0565,0.0513,0.0546,
新宿 (Shinjuku),2011-11-29,22:00～22:59,0.0562,0.0523,0.0544,
新宿 (Shinjuku),2011-11-29,21:00～21:59,0.0571,0.0518,0.0541,
新宿 (Shinjuku),2011-11-29,20:00～20:59,0.0568,0.0508,0.0540,
新宿 (Shinjuku),2011-11-29,19:00～19:59,0.0560,0.0516,0.0541,
新宿 (Shinjuku),2011-11-29,18:00～18:59,0.0580,0.0516,0.0544,
新宿 (Shinjuku),2011-11-29,17:00～17:59,0.0570,0.0523,0.0547,
新宿 (Shinjuku),2011-11-29,16:00～16:59,0.0565,0.0521,0.0541,
新宿 (Shinjuku),2011-11-29,15:00～15:59,0.0575,0.0523,0.0543,
新宿 (Shinjuku),2011-11-29,14:00～14:59,0.0568,0.0516,0.0547,
新宿 (Shinjuku),2011-11-29,13:00～13:59,0.0576,0.0526,0.0545,
新宿 (Shinjuku),2011-11-29,12:00～12:59,0.0571,0.0513,0.0546,
新宿 (Shinjuku),2011-11-29,11:00～11:59,0.0565,0.0516,0.0545,
新宿 (Shinjuku),2011-11-29,10:00～10:59,0.0579,0.0520,0.0551,
新宿 (Shinjuku),2011-11-29,09:00～09:59,0.0576,0.0523,0.0546,
新宿 (Shinjuku),2011-11-29,08:00～08:59,0.0584,0.0512,0.0551,
新宿 (Shinjuku),2011-11-29,07:00～07:59,0.0583,0.0530,0.0553,
新宿 (Shinjuku),2011-11-29,06:00～06:59,0.0574,0.0527,0.0550,
新宿 (Shinjuku),2011-11-29,05:00～05:59,0.0567,0.0523,0.0547,
新宿 (Shinjuku),2011-11-29,04:00～04:59,0.0575,0.0523,0.0546,
新宿 (Shinjuku),2011-11-29,03:00～03:59,0.0577,0.0525,0.0544,
新宿 (Shinjuku),2011-11-29,02:00～02:59,0.0570,0.0520,0.0546,
新宿 (Shinjuku),2011-11-29,01:00～01:59,0.0579,0.0509,0.0544,
新宿 (Shinjuku),2011-11-29,00:00～00:59,0.0571,0.0521,0.0545,
新宿 (Shinjuku),2011-11-28,23:00～23:59,0.0567,0.0513,0.0544,
新宿 (Shinjuku),2011-11-28,22:00～22:59,0.0569,0.0523,0.0547,
新宿 (Shinjuku),2011-11-28,21:00～21:59,0.0575,0.0513,0.0541,
新宿 (Shinjuku),2011-11-28,20:00～20:59,0.0567,0.0514,0.0541,
新宿 (Shinjuku),2011-11-28,19:00～19:59,0.0558,0.0512,0.0538,
新宿 (Shinjuku),2011-11-28,18:00～18:59,0.0567,0.0516,0.0538,
新宿 (Shinjuku),2011-11-28,17:00～17:59,0.0565,0.0515,0.0538,
新宿 (Shinjuku),2011-11-28,16:00～16:59,0.0567,0.0517,0.0543,
新宿 (Shinjuku),2011-11-28,15:00～15:59,0.0578,0.0507,0.0547,
新宿 (Shinjuku),2011-11-28,14:00～14:59,0.0569,0.0523,0.0545,
新宿 (Shinjuku),2011-11-28,13:00～13:59,0.0579,0.0526,0.0549,
新宿 (Shinjuku),2011-11-28,12:00～12:59,0.0577,0.0530,0.0551,
新宿 (Shinjuku),2011-11-28,11:00～11:59,0.0583,0.0522,0.0549,
新宿 (Shinjuku),2011-11-28,10:00～10:59,0.0571,0.0524,0.0549,
新宿 (Shinjuku),2011-11-28,09:00～09:59,0.0575,0.0523,0.0548,
新宿 (Shinjuku),2011-11-28,08:00～08:59,0.0573,0.0525,0.0549,
新宿 (Shinjuku),2011-11-28,07:00～07:59,0.0571,0.0525,0.0549,
新宿 (Shinjuku),2011-11-28,06:00～06:59,0.0573,0.0520,0.0549,
新宿 (Shinjuku),2011-11-28,05:00～05:59,0.0572,0.0520,0.0547,
新宿 (Shinjuku),2011-11-28,04:00～04:59,0.0566,0.0519,0.0542,
新宿 (Shinjuku),2011-11-28,03:00～03:59,0.0567,0.0515,0.0543,
新宿 (Shinjuku),2011-11-28,02:00～02:59,0.0566,0.0513,0.0540,
新宿 (Shinjuku),2011-11-28,01:00～01:59,0.0563,0.0522,0.0540,
新宿 (Shinjuku),2011-11-28,00:00～00:59,0.0565,0.0508,0.0540,
